Location: Grantsboro
(35.1404°N, 76.8424°W)
Time: 16:40:47
(UTC+00:00)

SKYMED 2 - Pass Details

Date: 18 January 2020
Orbit: 621 x 623 km, 97.9° (Epoch: 19 February)

Event Time Altitude Azimuth Distance (km) Brightness Sun altitude
Rises 10:12:08 0° 159° (SSE) 2,889 7.4 -24.7°
Reaches altitude 10° 10:14:20 10° 156° (SSE) 1,986 6.5 -24.3°
Maximum altitude 10:18:36 64° 75° (ENE) 693 3.9 -23.4°
Enters shadow 10:21:18 22° 360° (N) 1,366 5.2 -22.9°
